Погода в Саперном

Россия / Санкт-Петербург и Ленинградская область     60°42′40″N   29°57′44″E
темп.,
°C
ветер,
м/с
пор.,
м/с
влажн.,
%
обл.,
%
осадки,
мм/ч
давл.,
гПа
погр.,
м
25 октября, пн
пн2500:000ю397899 0.0 1023305
03:00+1ю41396100 0.3 1019563
06:00+3ююз51594100 1.4 1016782
09:00+6юз61694100 3.1 10131221
12:00+8зюз71589100 2.4 10131084
15:00+8зюз71585100 3.2 10121061
18:00+8зюз71484100 0.0 10121028
21:00+8зюз61385100 0.1 10121090
26 октября, вт
вт2600:00+7зюз51187100 0.1 10121176
03:00+7юз41190100 0.3 1011807
06:00+6юз51191100 0.1 1010754
09:00+6юз41191100 0.1 1010634
12:00+7юз41088100 0.0 1010600
15:00+7юз41089100 0.1 1009682
18:00+6юз41191100 0.0 1009545
21:00+7юз41192100 0.1 1008597
27 октября, ср
ср2700:00+7юз41295100 0.3 1007638
03:00+7юз41196100 1.1 1006691
06:00+8юз41094100 1.1 1005503
09:00+7зюз4109369 1.1 1004518
12:00+7з41080100 0.0 1005597
15:00+8з4108469 0.1 1007974
18:00+7з3883100 0.1 1008514
21:00+6зюз2791100 0.1 1009302
28 октября, чт
чт2800:00+6ююз2596100 0.1 1009205
03:00+6ю1396100 0.1 100995
06:00+6вюв2496100 1.4 1008156
09:00+6в2794100 2.1 1009364
12:00+6всв3695100 0.1 1011452
15:00+5всв3789100 0.2 1014458
18:00+5в3786100 0.0 1017501
21:00+5в3887100 0.0 1018531
29 октября, пт
пт2900:00+4вюв3887100 0.0 1019464
03:00+4вюв4989100 0.4 1019404
06:00+4юв31094100 2.1 1018436
09:00+5юв41195100 3.4 1018508
12:00+6ю3997100 0.7 1017396
15:00+9юз31097100 0.7 1018431
18:00+9юз41195100 0.0 1018401
21:00+8юз4139582 0.0 1018399